AirNav   Pilot Hours Calculator
 
 485 users online  

67KY Estes Airport
Florence, Kentucky, USA

GOING TO FLORENCE?


FAA INFORMATION EFFECTIVE 31 JANUARY 2019

Location

FAA Identifier: 67KY
Lat/Long: 38-59-00.2190N / 084-39-58.0000W
38-59.003650N / 084-39.966667W
38.9833942 / -84.6661111
(estimated)
Elevation: 890 ft. / 271 m (estimated)
Variation: 03W (1985)
From city: 2 miles SW of FLORENCE, KY
Time zone: UTC -5 (UTC -4 during Daylight Saving Time)
Zip code: 41042

Airport Operations

Airport use: Private use. Permission required prior to landing
Activation date: 08/1985
Control tower: no
ARTCC: INDIANAPOLIS CENTER
FSS: LOUISVILLE FLIGHT SERVICE STATION
Attendance: IREG
Wind indicator: yes
Segmented circle: no

Airport Communications

WX ASOS at CVG (4 nm N): PHONE 859-767-8210
WX ASOS at LUK (14 nm NE): PHONE 513-321-6291
WX AWOS-3PT at I67 (17 nm N): 118.15 (513-569-4964)

Nearby radio navigation aids

VOR radial/distance  VOR name  Freq  Var
CVGr142/2.6CINCINNATI VORTAC117.3004W
FLMr324/26.0FALMOUTH VOR/DME117.0004W

 
NDB name  Hdg/Dist  Freq  Var  ID
CINCINNATI239/18.533504WLUK .-.. ..- -.-
SPORTYS259/21.724504WPWF .--. .-- ..-.
HOOK FIELD202/32.523904WHKF .... -.- ..-.
BATESVILLE133/35.125405WHLB .... .-.. -...

Airport Services

Runway Information

Runway 4/22

Dimensions: 1500 x 100 ft. / 457 x 30 m
Surface: turf
RUNWAY 4  RUNWAY 22
Traffic pattern: leftleft

Airport Ownership and Management from official FAA records

Ownership: Privately-owned
Owner: KENNETH RAY ESTES
7443 HOPEFUL CHURCH ROAD
FLORENCE, KY 41042
Phone 859-525-1675
Manager: KENNETH RAY ESTES
7443 HOPEFUL CHURCH ROAD
FLORENCE, KY 41042
Phone 859-525-1675

Airport Operational Statistics

Aircraft based on the field: 2
Single engine airplanes: 2
    

Instrument Procedures

There are no published instrument procedures at 67KY.

Some nearby airports with instrument procedures:

KCVG - Cincinnati/Northern Kentucky International Airport (4 nm N)
KLUK - Cincinnati Municipal Airport-Lunken Field (14 nm NE)
I67 - Cincinnati West Airport (17 nm N)
K62 - Gene Snyder Airport (21 nm SE)
I69 - Clermont County Airport (22 nm E)
 
Loc | Ops | Rwys | IFR | FBO | Links
Com | Nav | Svcs | Stats | Notes
Area around 67KY (Estes Airport)
 
Road maps at: MapQuest Bing Google
 
Aerial photo
No photo
 
Sectional chart

 
Airport distance calculator
Flying to Estes Airport? Find the distance to fly.

From to 67KY

Sunrise and sunset
Times for 24-Feb-2019
 Local
(UTC-5)
 Zulu
(UTC)
Morning civil twilight06:5211:52
Sunrise07:1912:19
Sunset18:2523:25
Evening civil twilight18:5223:52

Current date and time
Zulu (UTC)  24-Feb-2019 06:20:24
Local (UTC-5)  24-Feb-2019 01:20:24
 
METAR
KCVG 
4nm N 
240552Z 17019KT 10SM OVC010 14/13 A2954 RMK AO2 PK WND 15029/0515 RAB00E10 SLP999 P0000 60035 T01440128 10144 20117 58029
KLUK 
14nm NE 
240602Z AUTO 18012KT 10SM BKN013 OVC017 14/13 A2956 RMK AO2 P0001 T01440128
KI67 
17nm N 
240555Z AUTO 19009KT 10SM OVC011 14/12 A2953 RMK AO1
TAF
KCVG 
4nm N 
240528Z 2406/2512 17015G31KT P6SM SHRA VCTS OVC015CB WS020/21050KT TEMPO 2406/2407 5SM -SHRA BR OVC009 FM240900 23016G32KT P6SM BKN035 WS020/24050KT FM241200 24024G40KT P6SM BKN025 FM241400 25024G41KT P6SM OVC018 FM242000 26024G35KT P6SM SCT025 FM250600 28013G26KT P6SM SKC
KLUK 
14nm NE 
240528Z 2406/2506 17015G31KT P6SM SHRA VCTS OVC025CB WS020/21050KT TEMPO 2406/2407 5SM -SHRA BR OVC011 FM240900 23016G32KT P6SM BKN035 WS020/24050KT FM241200 24023G37KT P6SM BKN028 FM241400 25024G40KT P6SM OVC022 FM242000 26023G32KT P6SM SCT025
NOTAMs
Click for the latest NOTAMs
NOTAMs are issued by the DoD/FAA and will open in a separate window not controlled by AirNav.

 

 
 

Would you like to see your business listed on this page?

 If your business provides an interesting product or service to pilots, flight crews, aircraft, or users of the Estes Airport, you should consider listing it here.  To start the listing process, click on the button below
 
Add a business
 

Other Pages about Estes Airport

Update a link
 
Copyright © AirNav, LLC. All rights reserved. Privacy Policy  Contact